Regional Weather Roundup
Issued by NWS

Home | Current Version | Previous Version | Text Only | Print | Product List | Glossary On
Versions: 1 2 3 4 5 6 7 8 9 10 11 12 13 14 15 16 17 18 19 20 21 22 23 24 25 26 27 28 29 30 31 32 33 34 35 36 37 38 39 40 41 42 43 44 45 46 47 48 49 50
000
ASUS43 KMKX 270559
RWRWI

WISCONSIN REGIONAL WEATHER ROUNDUP
NATIONAL WEATHER SERVICE MILWAUKEE/SULLIVAN WI
100 AM CDT FRI MAR 27 2015

NOTE: "FAIR" INDICATES FEW OR NO CLOUDS BELOW 12,000 FEET WITH NO
SIGNIFICANT WEATHER AND/OR OBSTRUCTIONS TO VISIBILITY.

WIZ001-002-006>008-014>016-023>028-270700-
NORTHWEST WISCONSIN

CITY           SKY/WX    TMP DP  RH WIND       PRES   REMARKS
SUPERIOR ARPT  CLEAR     22   3  44 NE12G18   30.27R WCI  10
ASHLAND        CLEAR     17   7  64 N7        30.24R WCI   8
6HR MIN TEMP:  16; 6HR MAX TEMP:  24;

HAYWARD        CLEAR     15   8  73 CALM      30.20R
6HR MIN TEMP:  15; 6HR MAX TEMP:  27;

SIREN          CLEAR     20   2  46 N5        30.23R WCI  14
CUMBERLAND     CLEAR     21   5  49 N3        30.19R
RICE LAKE      CLEAR     20   7  57 N3        30.21R
CHETEK         CLEAR     21   6  53 CALM      30.20R
LADYSMITH      CLEAR     18  10  72 NW3       30.19R
EAU CLAIRE     NOT AVBL
MENOMONIE      CLEAR     23   7  49 N3        30.20S
NEW RICHMOND   CLEAR     20   9  62 N3        30.21S
OSCEOLA        CLEAR     23   5  46 N5        30.25S WCI  17
$$

WIZ003>005-009-010-017-018-270700-
NORTH CENTRAL WISCONSIN

CITY           SKY/WX    TMP DP  RH WIND       PRES   REMARKS
MANITOWISH WTR MOCLDY    11   5  76 CALM      30.12R
ARBOR VITAE    MOCLDY     9   4  80 CALM      30.11S
WOODRUFF       MOCLDY     9   4  80 CALM      30.11S
RHINELANDER    CLOUDY    13   5  70 NW5       30.10F WCI   5
6HR MIN TEMP:   4; 6HR MAX TEMP:  20;

EAGLE RIVER    MOCLDY    10   5  80 CALM      30.11R
LAND O LAKES   CLOUDY    12   9  86 N3        30.12R
PHILLIPS       CLOUDY    15   7  70 NW3       30.13S
TOMAHAWK       CLEAR      3  -1  85 CALM      30.13S
MEDFORD        CLEAR     10   6  82 CALM      30.13F
MERRILL        CLEAR      9   4  82 CALM      30.13S
$$

WIZ029-030-035-036-043>047-270700-
CENTRAL WISCONSIN

CITY           SKY/WX    TMP DP  RH WIND       PRES   REMARKS
WAUSAU         CLEAR     16   7  67 NW5       30.13S WCI   9
6HR MIN TEMP:  15; 6HR MAX TEMP:  25;

MOSINEE        CLEAR     18   7  62 CALM      30.15S
MARSHFIELD     CLEAR     18   5  57 N5        30.15S WCI  11
6HR MIN TEMP:  17; 6HR MAX TEMP:  28;

STEVENS POINT  CLEAR     16   4  60 CALM      30.16S
WAUPACA        MOCLDY    23   5  45 N12G18    30.16R WCI  12
WAUTOMA        NOT AVBL
WISC RAPIDS    CLEAR     19   4  51 NE8       30.17S WCI   9
6HR MIN TEMP:  19; 6HR MAX TEMP:  29;

CAMP DOUGLAS   CLEAR     21   9  59 N6        30.17R WCI  13
6HR MIN TEMP:  21; 6HR MAX TEMP:  31; 6HR PCP: TRACE;

$$

WIZ011>013-019>022-031-037>040-048>050-270700-
NORTHEAST WISCONSIN

CITY           SKY/WX    TMP DP  RH WIND       PRES   REMARKS
ANTIGO         CLEAR      8   3  82 CALM      30.11S
SHAWANO        FAIR      19   6  56 CALM      30.16S
OCONTO         CLEAR     19   7  60 NW6       30.16S WCI  10
STURGEON BAY   PTCLDY    18   5  57 N15       30.15S WCI   3
6HR MIN TEMP:  18; 6HR MAX TEMP:  27;

GREEN BAY      CLEAR     20   7  57 N9        30.15F WCI   9
6HR MIN TEMP:  20; 6HR MAX TEMP:  31;

MANITOWOC      NOT AVBL
APPLETON       MOCLDY    21   3  45 N16G24    30.14R WCI   7
CLINTONVILLE   CLEAR     21   5  49 N3        30.16S
OSHKOSH        CLOUDY    23   7  50 N16       30.13R WCI  10
6HR MIN TEMP:  23; 6HR MAX TEMP:  31; 6HR PCP: TRACE;

$$

WIZ032>034-041-042-053>061-270700-
SOUTHWEST WISCONSIN

CITY           SKY/WX    TMP DP  RH WIND       PRES   REMARKS
LA CROSSE      CLEAR     27  12  53 NE12      30.19R WCI  17
6HR MIN TEMP:  27; 6HR MAX TEMP:  35;

SPARTA         CLEAR     24   9  53 NE9       30.19R WCI  14
VIROQUA        CLEAR     24  15  67 NE12      30.13R WCI  13
BOSCOBEL       CLOUDY    30  14  51 NE9       30.16R WCI  22
6HR MIN TEMP:  30; 6HR MAX TEMP:  35;

PRAIRIE DU CHI CLOUDY    32  14  47 N3        30.14S
PLATTEVILLE    CLOUDY    30  21  70 N8        30.12R WCI  22
$$

WIZ056-057-062-063-064-067-068-270700-
SOUTH CENTRAL WISCONSIN

CITY           SKY/WX    TMP DP  RH WIND       PRES   REMARKS
REEDSBURG      CLEAR     24  10  56 N8        30.14R WCI  15
BARABOO/DELLS  CLEAR     24   8  50 N6        30.14R WCI  16
LONE ROCK      NOT AVBL
MINERAL POINT  CLOUDY    30  14  51 N8        30.11R WCI  23
MADISON        CLEAR     25  10  53 N8        30.13R WCI  16
6HR MIN TEMP:  25; 6HR MAX TEMP:  34;

MIDDLETON      CLEAR     28  16  61 N7        30.13R WCI  20
WATERTOWN      CLOUDY    27  14  58 N10G16    30.11R WCI  17
MONROE         PTCLDY    28  18  64 N8        30.10S WCI  20
JANESVILLE     MOCLDY    30  16  55 N6        30.10S WCI  24
$$

WIZ051-052-058>065-066-070>072-270700-
SOUTHEAST WISCONSIN

CITY           SKY/WX    TMP DP  RH WIND       PRES   REMARKS
MILWAUKEE      LGT SNOW  26  22  84 NE14      30.10S FOG     WCI  14
6HR MIN TEMP:  26; 6HR MAX TEMP:  34; 6HR PCP:  0.01;

WAUKESHA       CLOUDY    27  18  69 N8        30.10S WCI  18
MILWAUKEE/TIMM CLOUDY    28  19  69 N12G17    30.11R WCI  18
RACINE         LGT SNOW  28  23  81 N15       30.11R WCI  16
6HR MIN TEMP:  27; 6HR MAX TEMP:  34; 6HR PCP:  0.01;

BURLINGTON     CLOUDY    27  20  72 N6        30.09S WCI  21
KENOSHA        CLOUDY    29  24  82 NE9       30.09R WCI  20
6HR MIN TEMP:  29; 6HR MAX TEMP:  35;

FOND DU LAC    CLOUDY    23  11  60 N16       30.13R WCI  10
6HR MIN TEMP:  23; 6HR MAX TEMP:  31;

SHEBOYGAN      CLOUDY    23  13  65 N15G24    30.11S WCI  10
6HR MIN TEMP:  23; 6HR MAX TEMP:  31; 6HR PCP: TRACE;

WEST BEND      FLURRIES  25  19  80 NE8       30.10S WCI  16
JUNEAU         FAIR      25  13  61 N13       30.12R WCI  13
$$

LSZ147-162-270700-
LAKE SUPERIOR

STATION/POSITION TIME  TEMP    WIND        PRES    WAVE
                       AIR SEA DIR/SP/G            HT/PER
                 (UTC) (F)     (DEG/KT/KT) (MB)    (FT/S)
DEVILS ISLAND    0500   22      10/ 18/ 21 1025.4R
PORT WING        0540   24      20/ 20/ 23 1024.4S
SAXON HARBOR     0500   25      30/ 19/ 24 1022.7R
$$

LMZ867-665-643>646-270700-
LAKE MICHIGAN

STATION/POSITION TIME  TEMP    WIND        PRES    WAVE
                       AIR SEA DIR/SP/G            HT/PER
                 (UTC) (F)     (DEG/KT/KT) (MB)    (FT/S)
NORTHPORT PIER   0509   21     340/ 15     1020.0S
SISTER BAY       0547   19     340/ 18/ 21   N/A
KEWAUNEE LAKESHO 0500   21     360/ 10/ 18 1019.6R
SHEBOYGAN LAKESH 0500   26     330/ 17/ 21 1020.7R
PORT WASHINGTON  0500   27     360/  8/ 12 1020.3R
MILWAUKEE LAKESH 0500   28      30/ 16/ 19   N/A
KENOSHA   LAKESH 0500   30      20/ 16/ 21 1019.0R
$$

TC  - TEMPERATURE IN CELSIUS
VSB - VISIBILITY IN STATUTE MILES
WCI - WIND CHILL INDEX
HX  - HEAT INDEX




USA.gov is the U.S. government's official web portal to all federal, state and local government web resources and services.